NOAA 16 DEB, 41376

Orbit data source: Space-Track

NOAA 16 DEB, 41376 is space debris in SSO originally from a launch on Thu, 21 Sep 2000 UTC launched from the Air Force Western Test Range (AFWTR). Debris objects in space refer to the collection of defunct objects orbiting the Earth. Examples of debris include non-operational satellites, rocket bodies, and fragments generated from explosions, collisions, or faulty payload assembly.

Loading next visibility...
Identifier
41376, 2000-055JV
Orbit
SSO
Country
Flag of USUS
Related business
Manufacturer
Unknown
Mission
Spacecraft
Bus & Motor
Unknown
Mass
Unknown
Launch date (UTC)
2000-09-21 (26 years ago)
Launch vehicle
Unknown
Launch site
Air Force Western Test Range (AFWTR)
Object type
Payload
Rocket body
Debris
Shape & HBR
Unknown shape, 0.1 m
Radar Cross Section
Medium (>0.1 m² and <1 m²)

Expand to show TLE details & history
Last TLE update: 2 days ago

TLE from 2 days ago
0 NOAA 16 DEB
1 41376U 00055JV  26253.07307446  .00002705  00000-0  97874-3 0  9992
2 41376  98.7346 352.6404 0015576  36.8390 323.3862 14.34252906551685
Epoch: 2026-09-10T01:45Z
TLE epoch observation values (Epoch: 2026-09-10T01:45:13.633Z)
Latitude
0.00005°
Longitude
-22.78243°
Altitude
771.541 km
Speed
7.473 km/s
True Right ascension
23h 30m 33s
True Declination
0° 00' 00"
Sunlit
Object was in full shadow at epoch
Visualization orbit readout
Latitude
Unknown
Longitude
Unknown
Altitude
Unknown
Speed
Unknown
Apparent Right ascension
Unknown
Apparent Declination
Unknown
Sunlit
N/A
Visualization observer readout
Local Sidereal Time
12:58:59
Azimuth
Unknown
Elevation
Unknown
Doppler factor
Unknown
Orbital elements
Apogee altitude
785.832 km
Perigee altitude
763.55 km
Semi-major axis
7,152.828 km
Eccentricity
0.00156
Inclination
98.7346°
RAAN
352.6404°
Arg. of periapsis
36.839°
True anomaly
323.27958°
Mean anomaly
323.3862°
Eccentric anomaly
323.33291°
Mean motion
3.58779 °/min
Orbital period
100.34 mins
BSTAR
0.00097874
Loading maneuver chart data...
Computing Atmospheric mass density...
Loading historical data...
Loading historical data...
Loading historical data...
Loading historical data...
Loading historical data...
Loading historical data...
Loading historical data...

Documentation

Showing up to 5 results
|